Home   Weather   Goslar   Past weeks

Flag for Germany Past Weather in Goslar, Lower Saxony, Germany — Yesterday and Last 2 Weeks

Now
66 °F

Passing clouds.


Feels Like: 66 °F
Forecast: 50 / 61 °F
Wind: 9 mph from Southwest

Location: Hannover

Current Time: Sep 29, 2016 at 3:49:51 AM

Latest Report: Sep 29, 2016 at 3:20 AM


Visibility: N/A

Pressure: 30.09 "Hg

Humidity: 64%

Dew Point: 54 °F

Location of GoslarLocation

Past Weather in Goslar — Graph

°F

Goslar Temperature Yesterday

Maximum temperature yesterday: 68 °F (at 12:50 PM)
Minimum temperature yesterday: 54 °F (at 12:20 AM)
Average temperature yesterday: 64 °F

High & Low Weather Summary for the Past Weeks

 TemperatureHumidityPressure
High86 °F (Sep 14, 2:20 PM)100% (Sep 21, 3:50 AM)30.30 "Hg (Sep 21, 3:50 AM)
Low43 °F (Sep 24, 6:50 AM)31% (Sep 14, 2:50 PM)29.86 "Hg (Sep 15, 5:50 PM)
Average62 °F72%30.10 "Hg
* Reported Sep 14 2:20 AM — Sep 29 2:50 AM, Goslar, Weather by CustomWeather, © 2016

Note: Actual official high and low records may vary slightly from our data, if they occured in-between our weather recording intervals... More about our weather records

Advertising

Goslar Weather History for the Previous 24 Hours

Scroll right to see more
 ConditionsComfort  
Time TempWeatherWind HumidityBarometerVisibility
2:50 AM
Thu, Sep 29
66 °FPassing clouds.10 mph64%30.09 "HgN/A
2:20 AM66 °FPassing clouds.9 mph60%30.09 "HgN/A
1:50 AM66 °FPartly cloudy.12 mph60%30.12 "HgN/A
1:20 AM66 °FPassing clouds.12 mph56%30.12 "HgN/A
12:50 AM64 °FClear.10 mph64%30.12 "Hg10 mi
12:20 AM66 °FClear.10 mph60%30.12 "Hg10 mi
11:50 PM
Wed, Sep 28
66 °FPassing clouds.12 mph60%30.12 "HgN/A
11:20 PM66 °FPassing clouds.10 mph60%30.12 "HgN/A
10:50 PM66 °FPassing clouds.10 mph60%30.15 "HgN/A
10:20 PM66 °FPassing clouds.12 mph60%30.12 "HgN/A
9:50 PM68 °FPassing clouds.12 mph56%30.15 "HgN/A
9:20 PM68 °FPassing clouds.12 mph56%30.15 "HgN/A
8:50 PM68 °FPassing clouds.13 mph56%30.15 "HgN/A
8:20 PM68 °FPassing clouds.13 mph56%30.15 "HgN/A
7:50 PM68 °FPassing clouds.13 mph56%30.15 "HgN/A
7:20 PM68 °FPassing clouds.14 mph56%30.12 "HgN/A
6:50 PM68 °FPassing clouds.13 mph56%30.15 "HgN/A
6:20 PM68 °FPassing clouds.14 mph56%30.15 "HgN/A
5:50 PM68 °FPassing clouds.14 mph60%30.15 "HgN/A
5:20 PM68 °FPartly sunny.15 mph60%30.12 "HgN/A
4:50 PM68 °FPartly sunny.16 mph60%30.12 "HgN/A
4:20 PM68 °FPassing clouds.17 mph60%30.12 "HgN/A
3:50 PM68 °FPassing clouds.16 mph56%30.15 "HgN/A
3:20 PM68 °FPassing clouds.13 mph56%30.15 "HgN/A
2:50 PM68 °FPassing clouds.16 mph56%30.15 "HgN/A
2:20 PM68 °FPartly sunny.16 mph56%30.15 "HgN/A
1:50 PM68 °FPartly sunny.16 mph56%30.15 "HgN/A
1:20 PM68 °FBroken clouds.16 mph60%30.15 "HgN/A
12:50 PM68 °FBroken clouds.18 mph60%30.15 "HgN/A
12:20 PM66 °FPartly sunny.17 mph64%30.15 "HgN/A
11:50 AM66 °FPartly sunny.18 mph64%30.18 "HgN/A
11:20 AM64 °FBroken clouds.16 mph64%30.18 "HgN/A
10:50 AM64 °FPartly sunny.15 mph64%30.18 "HgN/A
10:20 AM63 °FPartly sunny.14 mph64%30.18 "HgN/A
9:50 AM63 °FPartly sunny.17 mph64%30.15 "HgN/A
9:20 AM63 °FPartly sunny.16 mph64%30.15 "HgN/A
8:50 AM63 °FBroken clouds.15 mph59%30.18 "HgN/A
8:20 AM61 °FPartly sunny.9 mph59%30.18 "HgN/A
7:50 AM61 °FBroken clouds.9 mph59%30.18 "HgN/A
7:20 AM61 °FPartly sunny.8 mph59%30.18 "HgN/A
6:50 AM59 °FPassing clouds.10 mph63%30.18 "HgN/A
6:20 AM59 °FPassing clouds.10 mph63%30.18 "HgN/A
5:50 AM59 °FClear.12 mph68%30.18 "Hg10 mi
5:20 AM59 °FClear.10 mph68%30.18 "Hg10 mi
4:50 AM57 °FClear.8 mph72%30.21 "Hg10 mi
4:20 AM57 °FClear.6 mph72%30.21 "Hg10 mi
3:50 AM57 °FClear.8 mph72%30.21 "Hg10 mi
3:20 AM59 °FPassing clouds.7 mph68%30.21 "HgN/A
Weather by CustomWeather, © 2016

See weather overviewHow to use our weather pages